PWSweather.com
Personal Weather Stations
Station Observations
UGLTEWKE1
3 Beckford Close, BeckfordGB GL20 7

3 Beckford CloseBeckfordGB GL20 7

Lat: 52.01582, Lon: -2.037782

Elevation: 112

Station Type: Davis Vantage Pro2

http://www.theshieling.net/weatherdavis.php

High Low Average
Temperature 59.5°F15.3°C 33.1°F0.6°C 45.4°F7.4°C
Dew Point 44.8°F7.1°C 30.4°F-0.9°C 38.0°F3.3°C
Winds 3.0 mph 4.8 kmh Calm Calm Calm NWCalm NW
Wind Gusts 9.0 mph14.5 kmh -- 2.0 mph3.2 kmh
Humidity 92% 53% 77%
Pressure 30.64 in1037.6 mb 30.48 in1032.2 mb -
Precipitation 0.00 in0.0 mm - -
Hour Temp Dew Point Humidity Winds Wind Gusts Pressure Precip Precip Rate Daily Precip Total
12:00 AM 39.7°F4.3°C 35.6°F2.0°C 85% Calm Calm -- 30.62 in1036.9 mb 0.00 in0.0 mm 0.00 in0.0 mm 0.00 in0.0 mm
12:05 AM 39.7°F4.3°C 36.0°F2.2°C 86% Calm Calm -- 30.62 in1036.9 mb 0.00 in0.0 mm 0.00 in0.0 mm 0.00 in0.0 mm
12:10 AM 39.7°F4.3°C 36.0°F2.2°C 86% Calm Calm -- 30.62 in1036.9 mb 0.00 in0.0 mm 0.00 in0.0 mm 0.00 in0.0 mm
12:15 AM 39.7°F4.3°C 36.0°F2.2°C 86% Calm Calm -- 30.62 in1036.9 mb 0.00 in0.0 mm 0.00 in0.0 mm 0.00 in0.0 mm
12:20 AM 39.4°F4.1°C 35.2°F1.8°C 85% Calm Calm -- 30.62 in1036.9 mb 0.00 in0.0 mm 0.00 in0.0 mm 0.00 in0.0 mm
12:25 AM 39.0°F3.9°C 34.9°F1.6°C 85% Calm Calm -- 30.62 in1036.9 mb 0.00 in0.0 mm 0.00 in0.0 mm 0.00 in0.0 mm
12:30 AM 38.8°F3.8°C 34.7°F1.5°C 85% Calm Calm -- 30.62 in1036.9 mb 0.00 in0.0 mm 0.00 in0.0 mm 0.00 in0.0 mm
12:35 AM 38.7°F3.7°C 34.9°F1.6°C 86% Calm Calm -- 30.62 in1036.9 mb 0.00 in0.0 mm 0.00 in0.0 mm 0.00 in0.0 mm
12:40 AM 38.3°F3.5°C 34.5°F1.4°C 86% Calm Calm -- 30.62 in1036.9 mb 0.00 in0.0 mm 0.00 in0.0 mm 0.00 in0.0 mm
12:45 AM 37.9°F3.3°C 34.2°F1.2°C 86% Calm Calm -- 30.62 in1036.9 mb 0.00 in0.0 mm 0.00 in0.0 mm 0.00 in0.0 mm
12:50 AM 37.8°F3.2°C 34.0°F1.1°C 86% Calm Calm -- 30.62 in1036.9 mb 0.00 in0.0 mm 0.00 in0.0 mm 0.00 in0.0 mm
12:55 AM 37.6°F3.1°C 34.0°F1.1°C 87% Calm Calm -- 30.62 in1036.9 mb 0.00 in0.0 mm 0.00 in0.0 mm 0.00 in0.0 mm
01:00 AM 37.4°F3.0°C 33.8°F1.0°C 87% Calm Calm -- 30.62 in1036.9 mb 0.00 in0.0 mm 0.00 in0.0 mm 0.00 in0.0 mm
01:05 AM 37.6°F3.1°C 34.3°F1.3°C 88% Calm Calm -- 30.62 in1036.9 mb 0.00 in0.0 mm 0.00 in0.0 mm 0.00 in0.0 mm
01:10 AM 37.4°F3.0°C 34.2°F1.2°C 88% Calm Calm -- 30.61 in1036.6 mb 0.00 in0.0 mm 0.00 in0.0 mm 0.00 in0.0 mm
01:15 AM 37.2°F2.9°C 34.0°F1.1°C 88% Calm Calm -- 30.61 in1036.6 mb 0.00 in0.0 mm 0.00 in0.0 mm 0.00 in0.0 mm
01:20 AM 37.2°F2.9°C 34.0°F1.1°C 88% Calm Calm -- 30.61 in1036.6 mb 0.00 in0.0 mm 0.00 in0.0 mm 0.00 in0.0 mm
01:25 AM 37.2°F2.9°C 34.0°F1.1°C 88% Calm Calm -- 30.61 in1036.6 mb 0.00 in0.0 mm 0.00 in0.0 mm 0.00 in0.0 mm
01:30 AM 37.0°F2.8°C 33.8°F1.0°C 88% Calm Calm -- 30.60 in1036.2 mb 0.00 in0.0 mm 0.00 in0.0 mm 0.00 in0.0 mm
01:35 AM 37.0°F2.8°C 34.2°F1.2°C 89% Calm Calm -- 30.60 in1036.2 mb 0.00 in0.0 mm 0.00 in0.0 mm 0.00 in0.0 mm
01:40 AM 36.9°F2.7°C 34.0°F1.1°C 89% Calm Calm -- 30.60 in1036.2 mb 0.00 in0.0 mm 0.00 in0.0 mm 0.00 in0.0 mm
01:45 AM 36.3°F2.4°C 33.4°F0.8°C 89% Calm Calm -- 30.60 in1036.2 mb 0.00 in0.0 mm 0.00 in0.0 mm 0.00 in0.0 mm
01:50 AM 36.3°F2.4°C 33.1°F0.6°C 88% Calm Calm -- 30.60 in1036.2 mb 0.00 in0.0 mm 0.00 in0.0 mm 0.00 in0.0 mm
01:55 AM 36.1°F2.3°C 32.9°F0.5°C 88% Calm Calm -- 30.60 in1036.2 mb 0.00 in0.0 mm 0.00 in0.0 mm 0.00 in0.0 mm
02:00 AM 36.0°F2.2°C 33.1°F0.6°C 89% Calm Calm -- 30.60 in1036.2 mb 0.00 in0.0 mm 0.00 in0.0 mm 0.00 in0.0 mm
02:05 AM 36.0°F2.2°C 33.1°F0.6°C 89% Calm Calm -- 30.60 in1036.2 mb 0.00 in0.0 mm 0.00 in0.0 mm 0.00 in0.0 mm
02:10 AM 36.0°F2.2°C 33.1°F0.6°C 89% Calm Calm -- 30.60 in1036.2 mb 0.00 in0.0 mm 0.00 in0.0 mm 0.00 in0.0 mm
02:15 AM 36.0°F2.2°C 33.1°F0.6°C 89% Calm Calm -- 30.60 in1036.2 mb 0.00 in0.0 mm 0.00 in0.0 mm 0.00 in0.0 mm
02:20 AM 36.0°F2.2°C 33.1°F0.6°C 89% Calm Calm -- 30.60 in1036.2 mb 0.00 in0.0 mm 0.00 in0.0 mm 0.00 in0.0 mm
02:25 AM 35.4°F1.9°C 32.2°F0.1°C 88% Calm Calm -- 30.60 in1036.2 mb 0.00 in0.0 mm 0.00 in0.0 mm 0.00 in0.0 mm
02:30 AM 35.2°F1.8°C 32.4°F0.2°C 89% Calm Calm -- 30.60 in1036.2 mb 0.00 in0.0 mm 0.00 in0.0 mm 0.00 in0.0 mm
02:35 AM 35.1°F1.7°C 32.2°F0.1°C 89% Calm Calm -- 30.60 in1036.2 mb 0.00 in0.0 mm 0.00 in0.0 mm 0.00 in0.0 mm
02:40 AM 35.1°F1.7°C 32.2°F0.1°C 89% Calm Calm -- 30.60 in1036.2 mb 0.00 in0.0 mm 0.00 in0.0 mm 0.00 in0.0 mm
02:45 AM 34.9°F1.6°C 32.0°F0.0°C 89% Calm Calm -- 30.60 in1036.2 mb 0.00 in0.0 mm 0.00 in0.0 mm 0.00 in0.0 mm
02:50 AM 34.9°F1.6°C 32.0°F0.0°C 89% Calm Calm -- 30.60 in1036.2 mb 0.00 in0.0 mm 0.00 in0.0 mm 0.00 in0.0 mm
02:55 AM 34.5°F1.4°C 31.6°F-0.2°C 89% Calm Calm -- 30.60 in1036.2 mb 0.00 in0.0 mm 0.00 in0.0 mm 0.00 in0.0 mm
03:00 AM 34.5°F1.4°C 31.6°F-0.2°C 89% Calm Calm -- 30.60 in1036.2 mb 0.00 in0.0 mm 0.00 in0.0 mm 0.00 in0.0 mm
03:05 AM 34.3°F1.3°C 31.5°F-0.3°C 89% Calm Calm -- 30.60 in1036.2 mb 0.00 in0.0 mm 0.00 in0.0 mm 0.00 in0.0 mm
03:10 AM 34.2°F1.2°C 31.3°F-0.4°C 89% Calm Calm -- 30.60 in1036.2 mb 0.00 in0.0 mm 0.00 in0.0 mm 0.00 in0.0 mm
03:15 AM 34.2°F1.2°C 31.5°F-0.3°C 90% Calm Calm -- 30.60 in1036.2 mb 0.00 in0.0 mm 0.00 in0.0 mm 0.00 in0.0 mm
03:20 AM 34.2°F1.2°C 31.5°F-0.3°C 90% Calm Calm -- 30.60 in1036.2 mb 0.00 in0.0 mm 0.00 in0.0 mm 0.00 in0.0 mm
03:25 AM 34.2°F1.2°C 31.3°F-0.4°C 89% Calm Calm -- 30.60 in1036.2 mb 0.00 in0.0 mm 0.00 in0.0 mm 0.00 in0.0 mm
03:30 AM 33.8°F1.0°C 30.9°F-0.6°C 89% Calm Calm -- 30.60 in1036.2 mb 0.00 in0.0 mm 0.00 in0.0 mm 0.00 in0.0 mm
03:35 AM 33.6°F0.9°C 30.9°F-0.6°C 90% Calm Calm -- 30.60 in1036.2 mb 0.00 in0.0 mm 0.00 in0.0 mm 0.00 in0.0 mm
03:40 AM 33.6°F0.9°C 30.9°F-0.6°C 90% Calm Calm -- 30.60 in1036.2 mb 0.00 in0.0 mm 0.00 in0.0 mm 0.00 in0.0 mm
03:45 AM 33.6°F0.9°C 30.9°F-0.6°C 90% Calm Calm -- 30.60 in1036.2 mb 0.00 in0.0 mm 0.00 in0.0 mm 0.00 in0.0 mm
03:50 AM 33.4°F0.8°C 30.7°F-0.7°C 90% Calm Calm -- 30.60 in1036.2 mb 0.00 in0.0 mm 0.00 in0.0 mm 0.00 in0.0 mm
03:55 AM 33.3°F0.7°C 30.6°F-0.8°C 90% Calm Calm -- 30.60 in1036.2 mb 0.00 in0.0 mm 0.00 in0.0 mm 0.00 in0.0 mm
04:00 AM 33.1°F0.6°C 30.4°F-0.9°C 90% Calm Calm -- 30.60 in1036.2 mb 0.00 in0.0 mm 0.00 in0.0 mm 0.00 in0.0 mm
04:05 AM 33.1°F0.6°C 30.4°F-0.9°C 90% Calm Calm -- 30.61 in1036.6 mb 0.00 in0.0 mm 0.00 in0.0 mm 0.00 in0.0 mm
04:10 AM 33.1°F0.6°C 30.4°F-0.9°C 90% Calm Calm -- 30.61 in1036.6 mb 0.00 in0.0 mm 0.00 in0.0 mm 0.00 in0.0 mm
04:15 AM 33.3°F0.7°C 30.9°F-0.6°C 91% Calm Calm -- 30.61 in1036.6 mb 0.00 in0.0 mm 0.00 in0.0 mm 0.00 in0.0 mm
04:20 AM 33.4°F0.8°C 31.1°F-0.5°C 91% Calm Calm -- 30.60 in1036.2 mb 0.00 in0.0 mm 0.00 in0.0 mm 0.00 in0.0 mm
04:25 AM 33.4°F0.8°C 31.1°F-0.5°C 91% Calm Calm -- 30.60 in1036.2 mb 0.00 in0.0 mm 0.00 in0.0 mm 0.00 in0.0 mm
04:30 AM 34.0°F1.1°C 31.6°F-0.2°C 91% Calm Calm -- 30.61 in1036.6 mb 0.00 in0.0 mm 0.00 in0.0 mm 0.00 in0.0 mm
04:35 AM 34.2°F1.2°C 31.8°F-0.1°C 91% Calm Calm -- 30.61 in1036.6 mb 0.00 in0.0 mm 0.00 in0.0 mm 0.00 in0.0 mm
04:40 AM 34.3°F1.3°C 32.0°F0.0°C 91% Calm Calm -- 30.61 in1036.6 mb 0.00 in0.0 mm 0.00 in0.0 mm 0.00 in0.0 mm
04:45 AM 34.5°F1.4°C 32.2°F0.1°C 91% Calm Calm -- 30.61 in1036.6 mb 0.00 in0.0 mm 0.00 in0.0 mm 0.00 in0.0 mm
04:50 AM 34.5°F1.4°C 32.2°F0.1°C 91% Calm Calm -- 30.61 in1036.6 mb 0.00 in0.0 mm 0.00 in0.0 mm 0.00 in0.0 mm
04:55 AM 34.9°F1.6°C 32.5°F0.3°C 91% Calm Calm -- 30.61 in1036.6 mb 0.00 in0.0 mm 0.00 in0.0 mm 0.00 in0.0 mm
05:00 AM 35.1°F1.7°C 32.9°F0.5°C 92% Calm Calm -- 30.61 in1036.6 mb 0.00 in0.0 mm 0.00 in0.0 mm 0.00 in0.0 mm
05:05 AM 35.2°F1.8°C 32.9°F0.5°C 91% Calm Calm -- 30.61 in1036.6 mb 0.00 in0.0 mm 0.00 in0.0 mm 0.00 in0.0 mm
05:10 AM 35.4°F1.9°C 33.1°F0.6°C 91% Calm Calm -- 30.61 in1036.6 mb 0.00 in0.0 mm 0.00 in0.0 mm 0.00 in0.0 mm
05:15 AM 35.4°F1.9°C 33.1°F0.6°C 91% Calm Calm -- 30.62 in1036.9 mb 0.00 in0.0 mm 0.00 in0.0 mm 0.00 in0.0 mm
05:20 AM 35.6°F2.0°C 33.3°F0.7°C 91% Calm Calm -- 30.62 in1036.9 mb 0.00 in0.0 mm 0.00 in0.0 mm 0.00 in0.0 mm
05:25 AM 35.8°F2.1°C 33.4°F0.8°C 91% Calm Calm -- 30.62 in1036.9 mb 0.00 in0.0 mm 0.00 in0.0 mm 0.00 in0.0 mm
05:30 AM 36.0°F2.2°C 33.6°F0.9°C 91% Calm Calm -- 30.62 in1036.9 mb 0.00 in0.0 mm 0.00 in0.0 mm 0.00 in0.0 mm
05:35 AM 36.1°F2.3°C 33.8°F1.0°C 91% Calm Calm -- 30.62 in1036.9 mb 0.00 in0.0 mm 0.00 in0.0 mm 0.00 in0.0 mm
05:40 AM 36.3°F2.4°C 34.0°F1.1°C 91% Calm Calm -- 30.62 in1036.9 mb 0.00 in0.0 mm 0.00 in0.0 mm 0.00 in0.0 mm
05:45 AM 36.7°F2.6°C 34.3°F1.3°C 91% Calm Calm -- 30.62 in1036.9 mb 0.00 in0.0 mm 0.00 in0.0 mm 0.00 in0.0 mm
05:50 AM 36.7°F2.6°C 34.3°F1.3°C 91% Calm Calm -- 30.62 in1036.9 mb 0.00 in0.0 mm 0.00 in0.0 mm 0.00 in0.0 mm
05:55 AM 36.9°F2.7°C 34.2°F1.2°C 90% Calm Calm -- 30.62 in1036.9 mb 0.00 in0.0 mm 0.00 in0.0 mm 0.00 in0.0 mm
06:00 AM 36.9°F2.7°C 34.5°F1.4°C 91% Calm Calm -- 30.62 in1036.9 mb 0.00 in0.0 mm 0.00 in0.0 mm 0.00 in0.0 mm
06:05 AM 36.9°F2.7°C 34.5°F1.4°C 91% Calm Calm -- 30.63 in1037.3 mb 0.00 in0.0 mm 0.00 in0.0 mm 0.00 in0.0 mm
06:10 AM 37.0°F2.8°C 34.7°F1.5°C 91% Calm Calm -- 30.63 in1037.3 mb 0.00 in0.0 mm 0.00 in0.0 mm 0.00 in0.0 mm
06:15 AM 37.2°F2.9°C 34.9°F1.6°C 91% Calm Calm -- 30.63 in1037.3 mb 0.00 in0.0 mm 0.00 in0.0 mm 0.00 in0.0 mm
06:20 AM 37.4°F3.0°C 35.1°F1.7°C 91% Calm Calm -- 30.63 in1037.3 mb 0.00 in0.0 mm 0.00 in0.0 mm 0.00 in0.0 mm
06:25 AM 37.6°F3.1°C 35.2°F1.8°C 91% Calm Calm -- 30.63 in1037.3 mb 0.00 in0.0 mm 0.00 in0.0 mm 0.00 in0.0 mm
06:30 AM 37.9°F3.3°C 35.6°F2.0°C 91% Calm Calm -- 30.63 in1037.3 mb 0.00 in0.0 mm 0.00 in0.0 mm 0.00 in0.0 mm
06:35 AM 38.1°F3.4°C 36.0°F2.2°C 92% Calm Calm -- 30.63 in1037.3 mb 0.00 in0.0 mm 0.00 in0.0 mm 0.00 in0.0 mm
06:40 AM 38.7°F3.7°C 36.3°F2.4°C 91% Calm Calm -- 30.63 in1037.3 mb 0.00 in0.0 mm 0.00 in0.0 mm 0.00 in0.0 mm
06:45 AM 39.0°F3.9°C 36.7°F2.6°C 91% Calm Calm -- 30.63 in1037.3 mb 0.00 in0.0 mm 0.00 in0.0 mm 0.00 in0.0 mm
06:50 AM 39.4°F4.1°C 37.2°F2.9°C 92% Calm Calm -- 30.63 in1037.3 mb 0.00 in0.0 mm 0.00 in0.0 mm 0.00 in0.0 mm
06:55 AM 39.6°F4.2°C 37.2°F2.9°C 91% Calm Calm -- 30.63 in1037.3 mb 0.00 in0.0 mm 0.00 in0.0 mm 0.00 in0.0 mm
07:00 AM 39.6°F4.2°C 37.2°F2.9°C 91% Calm Calm -- 30.63 in1037.3 mb 0.00 in0.0 mm 0.00 in0.0 mm 0.00 in0.0 mm
07:05 AM 39.6°F4.2°C 37.2°F2.9°C 91% Calm Calm -- 30.63 in1037.3 mb 0.00 in0.0 mm 0.00 in0.0 mm 0.00 in0.0 mm
07:10 AM 39.6°F4.2°C 37.2°F2.9°C 91% Calm Calm -- 30.63 in1037.3 mb 0.00 in0.0 mm 0.00 in0.0 mm 0.00 in0.0 mm
07:15 AM 39.6°F4.2°C 37.2°F2.9°C 91% Calm Calm -- 30.63 in1037.3 mb 0.00 in0.0 mm 0.00 in0.0 mm 0.00 in0.0 mm
07:20 AM 39.7°F4.3°C 37.4°F3.0°C 91% Calm Calm -- 30.63 in1037.3 mb 0.00 in0.0 mm 0.00 in0.0 mm 0.00 in0.0 mm
07:25 AM 39.7°F4.3°C 37.4°F3.0°C 91% Calm Calm -- 30.64 in1037.6 mb 0.00 in0.0 mm 0.00 in0.0 mm 0.00 in0.0 mm
07:30 AM 39.7°F4.3°C 37.4°F3.0°C 91% Calm Calm -- 30.64 in1037.6 mb 0.00 in0.0 mm 0.00 in0.0 mm 0.00 in0.0 mm
07:35 AM 39.9°F4.4°C 37.6°F3.1°C 91% Calm Calm -- 30.64 in1037.6 mb 0.00 in0.0 mm 0.00 in0.0 mm 0.00 in0.0 mm
07:40 AM 40.1°F4.5°C 37.8°F3.2°C 91% Calm Calm -- 30.64 in1037.6 mb 0.00 in0.0 mm 0.00 in0.0 mm 0.00 in0.0 mm
07:45 AM 40.3°F4.6°C 37.9°F3.3°C 91% Calm Calm -- 30.63 in1037.3 mb 0.00 in0.0 mm 0.00 in0.0 mm 0.00 in0.0 mm
07:50 AM 40.6°F4.8°C 38.3°F3.5°C 91% Calm Calm -- 30.63 in1037.3 mb 0.00 in0.0 mm 0.00 in0.0 mm 0.00 in0.0 mm
07:55 AM 40.8°F4.9°C 38.5°F3.6°C 91% Calm Calm -- 30.63 in1037.3 mb 0.00 in0.0 mm 0.00 in0.0 mm 0.00 in0.0 mm
08:00 AM 41.0°F5.0°C 38.7°F3.7°C 91% Calm Calm -- 30.63 in1037.3 mb 0.00 in0.0 mm 0.00 in0.0 mm 0.00 in0.0 mm
08:05 AM 41.2°F5.1°C 38.8°F3.8°C 91% Calm Calm -- 30.63 in1037.3 mb 0.00 in0.0 mm 0.00 in0.0 mm 0.00 in0.0 mm
08:10 AM 41.5°F5.3°C 39.0°F3.9°C 91% Calm Calm -- 30.63 in1037.3 mb 0.00 in0.0 mm 0.00 in0.0 mm 0.00 in0.0 mm
08:15 AM 41.7°F5.4°C 39.2°F4.0°C 91% Calm Calm -- 30.63 in1037.3 mb 0.00 in0.0 mm 0.00 in0.0 mm 0.00 in0.0 mm
08:20 AM 41.9°F5.5°C 39.2°F4.0°C 90% Calm Calm -- 30.63 in1037.3 mb 0.00 in0.0 mm 0.00 in0.0 mm 0.00 in0.0 mm
08:25 AM 42.1°F5.6°C 39.4°F4.1°C 90% Calm Calm -- 30.63 in1037.3 mb 0.00 in0.0 mm 0.00 in0.0 mm 0.00 in0.0 mm
08:30 AM 42.4°F5.8°C 39.7°F4.3°C 90% Calm Calm -- 30.63 in1037.3 mb 0.00 in0.0 mm 0.00 in0.0 mm 0.00 in0.0 mm
08:35 AM 42.6°F5.9°C 39.6°F4.2°C 89% Calm Calm -- 30.63 in1037.3 mb 0.00 in0.0 mm 0.00 in0.0 mm 0.00 in0.0 mm
08:40 AM 43.2°F6.2°C 39.9°F4.4°C 88% Calm Calm -- 30.63 in1037.3 mb 0.00 in0.0 mm 0.00 in0.0 mm 0.00 in0.0 mm
08:45 AM 43.7°F6.5°C 40.5°F4.7°C 88% Calm Calm -- 30.63 in1037.3 mb 0.00 in0.0 mm 0.00 in0.0 mm 0.00 in0.0 mm
08:50 AM 44.2°F6.8°C 40.6°F4.8°C 87% Calm Calm -- 30.63 in1037.3 mb 0.00 in0.0 mm 0.00 in0.0 mm 0.00 in0.0 mm
08:55 AM 44.8°F7.1°C 41.2°F5.1°C 87% 1.0 mph WNW1.6 kmh WNW 3.0 mph4.8 kmh 30.63 in1037.3 mb 0.00 in0.0 mm 0.00 in0.0 mm 0.00 in0.0 mm
09:00 AM 45.1°F7.3°C 40.8°F4.9°C 85% 2.0 mph W3.2 kmh W 4.0 mph6.4 kmh 30.63 in1037.3 mb 0.00 in0.0 mm 0.00 in0.0 mm 0.00 in0.0 mm
09:05 AM 45.1°F7.3°C 40.8°F4.9°C 85% 1.0 mph WSW1.6 kmh WSW 4.0 mph6.4 kmh 30.63 in1037.3 mb 0.00 in0.0 mm 0.00 in0.0 mm 0.00 in0.0 mm
09:10 AM 45.5°F7.5°C 41.2°F5.1°C 85% Calm Calm 3.0 mph4.8 kmh 30.63 in1037.3 mb 0.00 in0.0 mm 0.00 in0.0 mm 0.00 in0.0 mm
09:15 AM 46.0°F7.8°C 41.7°F5.4°C 85% 1.0 mph WNW1.6 kmh WNW 6.0 mph9.7 kmh 30.63 in1037.3 mb 0.00 in0.0 mm 0.00 in0.0 mm 0.00 in0.0 mm
09:20 AM 46.4°F8.0°C 42.1°F5.6°C 85% 1.0 mph WNW1.6 kmh WNW 4.0 mph6.4 kmh 30.63 in1037.3 mb 0.00 in0.0 mm 0.00 in0.0 mm 0.00 in0.0 mm
09:25 AM 46.9°F8.3°C 42.4°F5.8°C 84% 1.0 mph WNW1.6 kmh WNW 5.0 mph8.0 kmh 30.63 in1037.3 mb 0.00 in0.0 mm 0.00 in0.0 mm 0.00 in0.0 mm
09:30 AM 47.5°F8.6°C 42.3°F5.7°C 82% 1.0 mph WSW1.6 kmh WSW 4.0 mph6.4 kmh 30.63 in1037.3 mb 0.00 in0.0 mm 0.00 in0.0 mm 0.00 in0.0 mm
09:35 AM 47.8°F8.8°C 42.3°F5.7°C 81% 1.0 mph SW1.6 kmh SW 3.0 mph4.8 kmh 30.63 in1037.3 mb 0.00 in0.0 mm 0.00 in0.0 mm 0.00 in0.0 mm
09:40 AM 48.4°F9.1°C 42.8°F6.0°C 81% 1.0 mph WSW1.6 kmh WSW 6.0 mph9.7 kmh 30.63 in1037.3 mb 0.00 in0.0 mm 0.00 in0.0 mm 0.00 in0.0 mm
09:45 AM 48.6°F9.2°C 42.6°F5.9°C 80% 2.0 mph WSW3.2 kmh WSW 5.0 mph8.0 kmh 30.63 in1037.3 mb 0.00 in0.0 mm 0.00 in0.0 mm 0.00 in0.0 mm
09:50 AM 48.6°F9.2°C 42.3°F5.7°C 79% Calm Calm -- 30.63 in1037.3 mb 0.00 in0.0 mm 0.00 in0.0 mm 0.00 in0.0 mm
09:55 AM 49.3°F9.6°C 42.6°F5.9°C 78% 1.0 mph SW1.6 kmh SW 4.0 mph6.4 kmh 30.63 in1037.3 mb 0.00 in0.0 mm 0.00 in0.0 mm 0.00 in0.0 mm
10:00 AM 49.5°F9.7°C 42.6°F5.9°C 77% 1.0 mph WSW1.6 kmh WSW 5.0 mph8.0 kmh 30.63 in1037.3 mb 0.00 in0.0 mm 0.00 in0.0 mm 0.00 in0.0 mm
10:05 AM 49.8°F9.9°C 43.0°F6.1°C 77% 2.0 mph SW3.2 kmh SW 5.0 mph8.0 kmh 30.62 in1036.9 mb 0.00 in0.0 mm 0.00 in0.0 mm 0.00 in0.0 mm
10:10 AM 50.2°F10.1°C 43.2°F6.2°C 77% Calm Calm 3.0 mph4.8 kmh 30.62 in1036.9 mb 0.00 in0.0 mm 0.00 in0.0 mm 0.00 in0.0 mm
10:15 AM 50.5°F10.3°C 43.9°F6.6°C 78% 1.0 mph SW1.6 kmh SW 6.0 mph9.7 kmh 30.62 in1036.9 mb 0.00 in0.0 mm 0.00 in0.0 mm 0.00 in0.0 mm
10:20 AM 51.1°F10.6°C 43.7°F6.5°C 76% 1.0 mph SW1.6 kmh SW 4.0 mph6.4 kmh 30.62 in1036.9 mb 0.00 in0.0 mm 0.00 in0.0 mm 0.00 in0.0 mm
10:25 AM 51.3°F10.7°C 43.3°F6.3°C 74% 2.0 mph SW3.2 kmh SW 6.0 mph9.7 kmh 30.62 in1036.9 mb 0.00 in0.0 mm 0.00 in0.0 mm 0.00 in0.0 mm
10:30 AM 51.6°F10.9°C 43.2°F6.2°C 73% 1.0 mph SW1.6 kmh SW 5.0 mph8.0 kmh 30.62 in1036.9 mb 0.00 in0.0 mm 0.00 in0.0 mm 0.00 in0.0 mm
10:35 AM 52.0°F11.1°C 43.2°F6.2°C 72% 1.0 mph SW1.6 kmh SW 5.0 mph8.0 kmh 30.62 in1036.9 mb 0.00 in0.0 mm 0.00 in0.0 mm 0.00 in0.0 mm
10:40 AM 52.3°F11.3°C 42.8°F6.0°C 70% 2.0 mph WSW3.2 kmh WSW 8.0 mph12.9 kmh 30.61 in1036.6 mb 0.00 in0.0 mm 0.00 in0.0 mm 0.00 in0.0 mm
10:45 AM 52.5°F11.4°C 42.3°F5.7°C 68% 3.0 mph W4.8 kmh W 7.0 mph11.3 kmh 30.62 in1036.9 mb 0.00 in0.0 mm 0.00 in0.0 mm 0.00 in0.0 mm
10:50 AM 52.5°F11.4°C 43.3°F6.3°C 71% Calm Calm 7.0 mph11.3 kmh 30.62 in1036.9 mb 0.00 in0.0 mm 0.00 in0.0 mm 0.00 in0.0 mm
10:55 AM 52.5°F11.4°C 42.3°F5.7°C 68% 3.0 mph WSW4.8 kmh WSW 9.0 mph14.5 kmh 30.62 in1036.9 mb 0.00 in0.0 mm 0.00 in0.0 mm 0.00 in0.0 mm
11:00 AM 53.1°F11.7°C 42.8°F6.0°C 68% 2.0 mph WSW3.2 kmh WSW 7.0 mph11.3 kmh 30.62 in1036.9 mb 0.00 in0.0 mm 0.00 in0.0 mm 0.00 in0.0 mm
11:05 AM 53.2°F11.8°C 42.1°F5.6°C 66% 2.0 mph W3.2 kmh W 7.0 mph11.3 kmh 30.61 in1036.6 mb 0.00 in0.0 mm 0.00 in0.0 mm 0.00 in0.0 mm
11:10 AM 53.2°F11.8°C 41.7°F5.4°C 65% 1.0 mph WNW1.6 kmh WNW 5.0 mph8.0 kmh 30.61 in1036.6 mb 0.00 in0.0 mm 0.00 in0.0 mm 0.00 in0.0 mm
11:15 AM 53.4°F11.9°C 41.9°F5.5°C 65% Calm Calm 4.0 mph6.4 kmh 30.61 in1036.6 mb 0.00 in0.0 mm 0.00 in0.0 mm 0.00 in0.0 mm
11:20 AM 53.8°F12.1°C 42.3°F5.7°C 65% Calm Calm 5.0 mph8.0 kmh 30.61 in1036.6 mb 0.00 in0.0 mm 0.00 in0.0 mm 0.00 in0.0 mm
11:25 AM 53.2°F11.8°C 41.0°F5.0°C 63% 2.0 mph WNW3.2 kmh WNW 8.0 mph12.9 kmh 30.61 in1036.6 mb 0.00 in0.0 mm 0.00 in0.0 mm 0.00 in0.0 mm
11:30 AM 52.5°F11.4°C 41.5°F5.3°C 66% 1.0 mph WSW1.6 kmh WSW 5.0 mph8.0 kmh 30.61 in1036.6 mb 0.00 in0.0 mm 0.00 in0.0 mm 0.00 in0.0 mm
11:35 AM 52.3°F11.3°C 41.0°F5.0°C 65% 1.0 mph WNW1.6 kmh WNW 8.0 mph12.9 kmh 30.61 in1036.6 mb 0.00 in0.0 mm 0.00 in0.0 mm 0.00 in0.0 mm
11:40 AM 52.9°F11.6°C 41.9°F5.5°C 66% 2.0 mph WNW3.2 kmh WNW 7.0 mph11.3 kmh 30.60 in1036.2 mb 0.00 in0.0 mm 0.00 in0.0 mm 0.00 in0.0 mm
11:45 AM 53.6°F12.0°C 43.0°F6.1°C 67% 1.0 mph W1.6 kmh W 4.0 mph6.4 kmh 30.60 in1036.2 mb 0.00 in0.0 mm 0.00 in0.0 mm 0.00 in0.0 mm
11:50 AM 54.1°F12.3°C 41.0°F5.0°C 61% Calm Calm 3.0 mph4.8 kmh 30.60 in1036.2 mb 0.00 in0.0 mm 0.00 in0.0 mm 0.00 in0.0 mm
11:55 AM 54.1°F12.3°C 42.6°F5.9°C 65% Calm Calm 1.0 mph1.6 kmh 30.60 in1036.2 mb 0.00 in0.0 mm 0.00 in0.0 mm 0.00 in0.0 mm
12:00 PM 54.5°F12.5°C 42.1°F5.6°C 63% 1.0 mph S1.6 kmh S 6.0 mph9.7 kmh 30.60 in1036.2 mb 0.00 in0.0 mm 0.00 in0.0 mm 0.00 in0.0 mm
12:05 PM 54.7°F12.6°C 41.9°F5.5°C 62% 2.0 mph WSW3.2 kmh WSW 6.0 mph9.7 kmh 30.60 in1036.2 mb 0.00 in0.0 mm 0.00 in0.0 mm 0.00 in0.0 mm
12:10 PM 54.5°F12.5°C 42.1°F5.6°C 63% 1.0 mph WNW1.6 kmh WNW 5.0 mph8.0 kmh 30.60 in1036.2 mb 0.00 in0.0 mm 0.00 in0.0 mm 0.00 in0.0 mm
12:15 PM 54.7°F12.6°C 41.9°F5.5°C 62% 1.0 mph SSW1.6 kmh SSW 5.0 mph8.0 kmh 30.60 in1036.2 mb 0.00 in0.0 mm 0.00 in0.0 mm 0.00 in0.0 mm
12:20 PM 54.3°F12.4°C 41.5°F5.3°C 62% 2.0 mph SSW3.2 kmh SSW 7.0 mph11.3 kmh 30.59 in1035.9 mb 0.00 in0.0 mm 0.00 in0.0 mm 0.00 in0.0 mm
12:25 PM 54.7°F12.6°C 41.9°F5.5°C 62% Calm Calm 4.0 mph6.4 kmh 30.59 in1035.9 mb 0.00 in0.0 mm 0.00 in0.0 mm 0.00 in0.0 mm
12:30 PM 55.2°F12.9°C 43.2°F6.2°C 64% 1.0 mph S1.6 kmh S 4.0 mph6.4 kmh 30.59 in1035.9 mb 0.00 in0.0 mm 0.00 in0.0 mm 0.00 in0.0 mm
12:35 PM 55.6°F13.1°C 43.2°F6.2°C 63% 3.0 mph SSW4.8 kmh SSW 7.0 mph11.3 kmh 30.59 in1035.9 mb 0.00 in0.0 mm 0.00 in0.0 mm 0.00 in0.0 mm
12:40 PM 55.8°F13.2°C 43.0°F6.1°C 62% 3.0 mph SSW4.8 kmh SSW 7.0 mph11.3 kmh 30.59 in1035.9 mb 0.00 in0.0 mm 0.00 in0.0 mm 0.00 in0.0 mm
12:45 PM 55.8°F13.2°C 43.7°F6.5°C 64% 2.0 mph SW3.2 kmh SW 5.0 mph8.0 kmh 30.58 in1035.6 mb 0.00 in0.0 mm 0.00 in0.0 mm 0.00 in0.0 mm
12:50 PM 55.8°F13.2°C 43.0°F6.1°C 62% Calm Calm -- 30.58 in1035.6 mb 0.00 in0.0 mm 0.00 in0.0 mm 0.00 in0.0 mm
12:55 PM 56.7°F13.7°C 43.7°F6.5°C 62% 2.0 mph SSW3.2 kmh SSW 7.0 mph11.3 kmh 30.58 in1035.6 mb 0.00 in0.0 mm 0.00 in0.0 mm 0.00 in0.0 mm
01:00 PM 56.5°F13.6°C 43.2°F6.2°C 61% 2.0 mph SSW3.2 kmh SSW 6.0 mph9.7 kmh 30.58 in1035.6 mb 0.00 in0.0 mm 0.00 in0.0 mm 0.00 in0.0 mm
01:05 PM 56.3°F13.5°C 42.6°F5.9°C 60% 2.0 mph SSW3.2 kmh SSW 7.0 mph11.3 kmh 30.58 in1035.6 mb 0.00 in0.0 mm 0.00 in0.0 mm 0.00 in0.0 mm
01:10 PM 56.1°F13.4°C 41.9°F5.5°C 59% 1.0 mph SW1.6 kmh SW 7.0 mph11.3 kmh 30.58 in1035.6 mb 0.00 in0.0 mm 0.00 in0.0 mm 0.00 in0.0 mm
01:15 PM 56.1°F13.4°C 42.8°F6.0°C 61% 2.0 mph SW3.2 kmh SW 9.0 mph14.5 kmh 30.58 in1035.6 mb 0.00 in0.0 mm 0.00 in0.0 mm 0.00 in0.0 mm
01:20 PM 55.9°F13.3°C 41.4°F5.2°C 58% 2.0 mph SW3.2 kmh SW 8.0 mph12.9 kmh 30.57 in1035.2 mb 0.00 in0.0 mm 0.00 in0.0 mm 0.00 in0.0 mm
01:25 PM 56.5°F13.6°C 44.8°F7.1°C 65% 1.0 mph SW1.6 kmh SW 6.0 mph9.7 kmh 30.57 in1035.2 mb 0.00 in0.0 mm 0.00 in0.0 mm 0.00 in0.0 mm
01:30 PM 56.7°F13.7°C 41.2°F5.1°C 56% Calm Calm 2.0 mph3.2 kmh 30.57 in1035.2 mb 0.00 in0.0 mm 0.00 in0.0 mm 0.00 in0.0 mm
01:35 PM 57.0°F13.9°C 42.8°F6.0°C 59% Calm Calm -- 30.57 in1035.2 mb 0.00 in0.0 mm 0.00 in0.0 mm 0.00 in0.0 mm
01:40 PM 57.7°F14.3°C 43.9°F6.6°C 60% Calm Calm -- 30.56 in1034.9 mb 0.00 in0.0 mm 0.00 in0.0 mm 0.00 in0.0 mm
01:45 PM 57.4°F14.1°C 42.8°F6.0°C 58% 3.0 mph SSW4.8 kmh SSW 5.0 mph8.0 kmh 30.56 in1034.9 mb 0.00 in0.0 mm 0.00 in0.0 mm 0.00 in0.0 mm
01:50 PM 56.8°F13.8°C 43.5°F6.4°C 61% 2.0 mph SW3.2 kmh SW 7.0 mph11.3 kmh 30.56 in1034.9 mb 0.00 in0.0 mm 0.00 in0.0 mm 0.00 in0.0 mm
01:55 PM 57.0°F13.9°C 43.3°F6.3°C 60% 1.0 mph SSW1.6 kmh SSW 5.0 mph8.0 kmh 30.56 in1034.9 mb 0.00 in0.0 mm 0.00 in0.0 mm 0.00 in0.0 mm
02:00 PM 57.0°F13.9°C 42.4°F5.8°C 58% 1.0 mph S1.6 kmh S 5.0 mph8.0 kmh 30.56 in1034.9 mb 0.00 in0.0 mm 0.00 in0.0 mm 0.00 in0.0 mm
02:05 PM 57.0°F13.9°C 41.9°F5.5°C 57% 1.0 mph S1.6 kmh S 8.0 mph12.9 kmh 30.56 in1034.9 mb 0.00 in0.0 mm 0.00 in0.0 mm 0.00 in0.0 mm
02:10 PM 57.4°F14.1°C 41.7°F5.4°C 56% 1.0 mph SW1.6 kmh SW 6.0 mph9.7 kmh 30.56 in1034.9 mb 0.00 in0.0 mm 0.00 in0.0 mm 0.00 in0.0 mm
02:15 PM 57.6°F14.2°C 42.8°F6.0°C 58% 3.0 mph SSW4.8 kmh SSW 7.0 mph11.3 kmh 30.56 in1034.9 mb 0.00 in0.0 mm 0.00 in0.0 mm 0.00 in0.0 mm
02:20 PM 57.0°F13.9°C 41.9°F5.5°C 57% 3.0 mph WSW4.8 kmh WSW 9.0 mph14.5 kmh 30.56 in1034.9 mb 0.00 in0.0 mm 0.00 in0.0 mm 0.00 in0.0 mm
02:25 PM 57.4°F14.1°C 41.4°F5.2°C 55% Calm Calm -- 30.55 in1034.5 mb 0.00 in0.0 mm 0.00 in0.0 mm 0.00 in0.0 mm
02:30 PM 57.6°F14.2°C 43.3°F6.3°C 59% 2.0 mph S3.2 kmh S 5.0 mph8.0 kmh 30.55 in1034.5 mb 0.00 in0.0 mm 0.00 in0.0 mm 0.00 in0.0 mm
02:35 PM 57.9°F14.4°C 44.1°F6.7°C 60% 2.0 mph WSW3.2 kmh WSW 8.0 mph12.9 kmh 30.55 in1034.5 mb 0.00 in0.0 mm 0.00 in0.0 mm 0.00 in0.0 mm
02:40 PM 57.6°F14.2°C 42.8°F6.0°C 58% 3.0 mph SW4.8 kmh SW 5.0 mph8.0 kmh 30.55 in1034.5 mb 0.00 in0.0 mm 0.00 in0.0 mm 0.00 in0.0 mm
02:45 PM 57.4°F14.1°C 42.8°F6.0°C 58% 1.0 mph WSW1.6 kmh WSW 7.0 mph11.3 kmh 30.55 in1034.5 mb 0.00 in0.0 mm 0.00 in0.0 mm 0.00 in0.0 mm
02:50 PM 57.6°F14.2°C 41.9°F5.5°C 56% Calm Calm 3.0 mph4.8 kmh 30.54 in1034.2 mb 0.00 in0.0 mm 0.00 in0.0 mm 0.00 in0.0 mm
02:55 PM 57.7°F14.3°C 42.6°F5.9°C 57% Calm Calm 3.0 mph4.8 kmh 30.54 in1034.2 mb 0.00 in0.0 mm 0.00 in0.0 mm 0.00 in0.0 mm
03:00 PM 57.9°F14.4°C 41.9°F5.5°C 55% Calm Calm 5.0 mph8.0 kmh 30.54 in1034.2 mb 0.00 in0.0 mm 0.00 in0.0 mm 0.00 in0.0 mm
03:05 PM 58.3°F14.6°C 42.6°F5.9°C 56% 2.0 mph WNW3.2 kmh WNW 7.0 mph11.3 kmh 30.54 in1034.2 mb 0.00 in0.0 mm 0.00 in0.0 mm 0.00 in0.0 mm
03:10 PM 58.3°F14.6°C 42.3°F5.7°C 55% Calm Calm 4.0 mph6.4 kmh 30.54 in1034.2 mb 0.00 in0.0 mm 0.00 in0.0 mm 0.00 in0.0 mm
03:15 PM 58.3°F14.6°C 42.6°F5.9°C 56% 1.0 mph W1.6 kmh W 4.0 mph6.4 kmh 30.54 in1034.2 mb 0.00 in0.0 mm 0.00 in0.0 mm 0.00 in0.0 mm
03:20 PM 57.9°F14.4°C 41.4°F5.2°C 54% 1.0 mph NW1.6 kmh NW 5.0 mph8.0 kmh 30.53 in1033.9 mb 0.00 in0.0 mm 0.00 in0.0 mm 0.00 in0.0 mm
03:25 PM 58.5°F14.7°C 41.9°F5.5°C 54% Calm Calm -- 30.54 in1034.2 mb 0.00 in0.0 mm 0.00 in0.0 mm 0.00 in0.0 mm
03:30 PM 58.5°F14.7°C 43.3°F6.3°C 57% 1.0 mph W1.6 kmh W 3.0 mph4.8 kmh 30.53 in1033.9 mb 0.00 in0.0 mm 0.00 in0.0 mm 0.00 in0.0 mm
03:35 PM 58.8°F14.9°C 43.7°F6.5°C 57% Calm Calm 3.0 mph4.8 kmh 30.53 in1033.9 mb 0.00 in0.0 mm 0.00 in0.0 mm 0.00 in0.0 mm
03:40 PM 58.6°F14.8°C 42.1°F5.6°C 54% 1.0 mph SW1.6 kmh SW 3.0 mph4.8 kmh 30.53 in1033.9 mb 0.00 in0.0 mm 0.00 in0.0 mm 0.00 in0.0 mm
03:45 PM 58.8°F14.9°C 41.7°F5.4°C 53% Calm Calm 1.0 mph1.6 kmh 30.53 in1033.9 mb 0.00 in0.0 mm 0.00 in0.0 mm 0.00 in0.0 mm
03:50 PM 59.4°F15.2°C 42.6°F5.9°C 54% Calm Calm 3.0 mph4.8 kmh 30.53 in1033.9 mb 0.00 in0.0 mm 0.00 in0.0 mm 0.00 in0.0 mm
03:55 PM 59.5°F15.3°C 43.3°F6.3°C 55% Calm Calm -- 30.53 in1033.9 mb 0.00 in0.0 mm 0.00 in0.0 mm 0.00 in0.0 mm
04:00 PM 59.4°F15.2°C 42.6°F5.9°C 54% Calm Calm 4.0 mph6.4 kmh 30.52 in1033.5 mb 0.00 in0.0 mm 0.00 in0.0 mm 0.00 in0.0 mm
04:05 PM 58.8°F14.9°C 43.2°F6.2°C 56% 2.0 mph W3.2 kmh W 6.0 mph9.7 kmh 30.52 in1033.5 mb 0.00 in0.0 mm 0.00 in0.0 mm 0.00 in0.0 mm
04:10 PM 58.5°F14.7°C 43.3°F6.3°C 57% 1.0 mph W1.6 kmh W 6.0 mph9.7 kmh 30.52 in1033.5 mb 0.00 in0.0 mm 0.00 in0.0 mm 0.00 in0.0 mm
04:15 PM 58.5°F14.7°C 41.9°F5.5°C 54% Calm Calm -- 30.52 in1033.5 mb 0.00 in0.0 mm 0.00 in0.0 mm 0.00 in0.0 mm
04:20 PM 58.8°F14.9°C 42.6°F5.9°C 55% Calm Calm 1.0 mph1.6 kmh 30.52 in1033.5 mb 0.00 in0.0 mm 0.00 in0.0 mm 0.00 in0.0 mm
04:25 PM 58.8°F14.9°C 42.6°F5.9°C 55% 1.0 mph SSE1.6 kmh SSE 4.0 mph6.4 kmh 30.51 in1033.2 mb 0.00 in0.0 mm 0.00 in0.0 mm 0.00 in0.0 mm
04:30 PM 58.6°F14.8°C 42.4°F5.8°C 55% Calm Calm -- 30.51 in1033.2 mb 0.00 in0.0 mm 0.00 in0.0 mm 0.00 in0.0 mm
04:35 PM 58.5°F14.7°C 41.4°F5.2°C 53% Calm Calm 3.0 mph4.8 kmh 30.51 in1033.2 mb 0.00 in0.0 mm 0.00 in0.0 mm 0.00 in0.0 mm
04:40 PM 58.6°F14.8°C 43.0°F6.1°C 56% Calm Calm -- 30.51 in1033.2 mb 0.00 in0.0 mm 0.00 in0.0 mm 0.00 in0.0 mm
04:45 PM 59.0°F15.0°C 43.7°F6.5°C 57% Calm Calm 2.0 mph3.2 kmh 30.51 in1033.2 mb 0.00 in0.0 mm 0.00 in0.0 mm 0.00 in0.0 mm
04:50 PM 58.8°F14.9°C 42.3°F5.7°C 54% Calm Calm -- 30.51 in1033.2 mb 0.00 in0.0 mm 0.00 in0.0 mm 0.00 in0.0 mm
04:55 PM 58.8°F14.9°C 41.7°F5.4°C 53% Calm Calm 2.0 mph3.2 kmh 30.51 in1033.2 mb 0.00 in0.0 mm 0.00 in0.0 mm 0.00 in0.0 mm
05:00 PM 58.3°F14.6°C 44.1°F6.7°C 59% Calm Calm 2.0 mph3.2 kmh 30.51 in1033.2 mb 0.00 in0.0 mm 0.00 in0.0 mm 0.00 in0.0 mm
05:05 PM 57.7°F14.3°C 43.9°F6.6°C 60% Calm Calm 3.0 mph4.8 kmh 30.51 in1033.2 mb 0.00 in0.0 mm 0.00 in0.0 mm 0.00 in0.0 mm
05:10 PM 57.6°F14.2°C 42.8°F6.0°C 58% Calm Calm -- 30.51 in1033.2 mb 0.00 in0.0 mm 0.00 in0.0 mm 0.00 in0.0 mm
05:15 PM 57.6°F14.2°C 42.4°F5.8°C 57% Calm Calm -- 30.51 in1033.2 mb 0.00 in0.0 mm 0.00 in0.0 mm 0.00 in0.0 mm
05:20 PM 57.4°F14.1°C 42.3°F5.7°C 57% Calm Calm -- 30.51 in1033.2 mb 0.00 in0.0 mm 0.00 in0.0 mm 0.00 in0.0 mm
05:25 PM 57.6°F14.2°C 43.7°F6.5°C 60% Calm Calm -- 30.51 in1033.2 mb 0.00 in0.0 mm 0.00 in0.0 mm 0.00 in0.0 mm
05:30 PM 57.4°F14.1°C 43.5°F6.4°C 60% Calm Calm -- 30.51 in1033.2 mb 0.00 in0.0 mm 0.00 in0.0 mm 0.00 in0.0 mm
05:35 PM 57.4°F14.1°C 44.1°F6.7°C 61% Calm Calm -- 30.51 in1033.2 mb 0.00 in0.0 mm 0.00 in0.0 mm 0.00 in0.0 mm
05:40 PM 57.7°F14.3°C 43.0°F6.1°C 58% Calm Calm -- 30.51 in1033.2 mb 0.00 in0.0 mm 0.00 in0.0 mm 0.00 in0.0 mm
05:45 PM 57.7°F14.3°C 41.2°F5.1°C 54% Calm Calm -- 30.51 in1033.2 mb 0.00 in0.0 mm 0.00 in0.0 mm 0.00 in0.0 mm
05:50 PM 57.9°F14.4°C 40.8°F4.9°C 53% Calm Calm -- 30.51 in1033.2 mb 0.00 in0.0 mm 0.00 in0.0 mm 0.00 in0.0 mm
05:55 PM 57.6°F14.2°C 41.0°F5.0°C 54% Calm Calm -- 30.51 in1033.2 mb 0.00 in0.0 mm 0.00 in0.0 mm 0.00 in0.0 mm
06:00 PM 57.4°F14.1°C 40.8°F4.9°C 54% Calm Calm -- 30.51 in1033.2 mb 0.00 in0.0 mm 0.00 in0.0 mm 0.00 in0.0 mm
06:05 PM 57.6°F14.2°C 41.0°F5.0°C 54% Calm Calm -- 30.51 in1033.2 mb 0.00 in0.0 mm 0.00 in0.0 mm 0.00 in0.0 mm
06:10 PM 57.4°F14.1°C 41.4°F5.2°C 55% Calm Calm -- 30.51 in1033.2 mb 0.00 in0.0 mm 0.00 in0.0 mm 0.00 in0.0 mm
06:15 PM 56.7°F13.7°C 40.3°F4.6°C 54% Calm Calm -- 30.51 in1033.2 mb 0.00 in0.0 mm 0.00 in0.0 mm 0.00 in0.0 mm
06:20 PM 56.5°F13.6°C 41.9°F5.5°C 58% Calm Calm -- 30.51 in1033.2 mb 0.00 in0.0 mm 0.00 in0.0 mm 0.00 in0.0 mm
06:25 PM 56.7°F13.7°C 42.1°F5.6°C 58% Calm Calm -- 30.51 in1033.2 mb 0.00 in0.0 mm 0.00 in0.0 mm 0.00 in0.0 mm
06:30 PM 56.5°F13.6°C 41.4°F5.2°C 57% Calm Calm -- 30.51 in1033.2 mb 0.00 in0.0 mm 0.00 in0.0 mm 0.00 in0.0 mm
06:35 PM 55.6°F13.1°C 41.5°F5.3°C 59% Calm Calm -- 30.51 in1033.2 mb 0.00 in0.0 mm 0.00 in0.0 mm 0.00 in0.0 mm
06:40 PM 54.9°F12.7°C 42.1°F5.6°C 62% Calm Calm -- 30.51 in1033.2 mb 0.00 in0.0 mm 0.00 in0.0 mm 0.00 in0.0 mm
06:45 PM 54.0°F12.2°C 41.2°F5.1°C 62% Calm Calm -- 30.51 in1033.2 mb 0.00 in0.0 mm 0.00 in0.0 mm 0.00 in0.0 mm
06:50 PM 53.1°F11.7°C 41.2°F5.1°C 64% Calm Calm -- 30.51 in1033.2 mb 0.00 in0.0 mm 0.00 in0.0 mm 0.00 in0.0 mm
06:55 PM 52.0°F11.1°C 40.6°F4.8°C 65% Calm Calm -- 30.51 in1033.2 mb 0.00 in0.0 mm 0.00 in0.0 mm 0.00 in0.0 mm
07:00 PM 51.3°F10.7°C 40.6°F4.8°C 67% Calm Calm -- 30.51 in1033.2 mb 0.00 in0.0 mm 0.00 in0.0 mm 0.00 in0.0 mm
07:05 PM 50.5°F10.3°C 40.3°F4.6°C 68% Calm Calm -- 30.51 in1033.2 mb 0.00 in0.0 mm 0.00 in0.0 mm 0.00 in0.0 mm
07:10 PM 49.6°F9.8°C 40.3°F4.6°C 70% Calm Calm -- 30.51 in1033.2 mb 0.00 in0.0 mm 0.00 in0.0 mm 0.00 in0.0 mm
07:15 PM 48.6°F9.2°C 39.6°F4.2°C 71% Calm Calm -- 30.51 in1033.2 mb 0.00 in0.0 mm 0.00 in0.0 mm 0.00 in0.0 mm
07:20 PM 47.8°F8.8°C 39.2°F4.0°C 72% Calm Calm -- 30.51 in1033.2 mb 0.00 in0.0 mm 0.00 in0.0 mm 0.00 in0.0 mm
07:25 PM 47.1°F8.4°C 38.8°F3.8°C 73% Calm Calm -- 30.51 in1033.2 mb 0.00 in0.0 mm 0.00 in0.0 mm 0.00 in0.0 mm
07:30 PM 46.6°F8.1°C 38.3°F3.5°C 73% Calm Calm -- 30.51 in1033.2 mb 0.00 in0.0 mm 0.00 in0.0 mm 0.00 in0.0 mm
07:35 PM 45.7°F7.6°C 37.9°F3.3°C 74% Calm Calm -- 30.51 in1033.2 mb 0.00 in0.0 mm 0.00 in0.0 mm 0.00 in0.0 mm
07:40 PM 45.0°F7.2°C 38.1°F3.4°C 77% Calm Calm -- 30.51 in1033.2 mb 0.00 in0.0 mm 0.00 in0.0 mm 0.00 in0.0 mm
07:45 PM 44.4°F6.9°C 37.9°F3.3°C 78% Calm Calm -- 30.51 in1033.2 mb 0.00 in0.0 mm 0.00 in0.0 mm 0.00 in0.0 mm
07:50 PM 44.1°F6.7°C 37.6°F3.1°C 78% Calm Calm -- 30.51 in1033.2 mb 0.00 in0.0 mm 0.00 in0.0 mm 0.00 in0.0 mm
07:55 PM 44.1°F6.7°C 37.6°F3.1°C 78% Calm Calm -- 30.51 in1033.2 mb 0.00 in0.0 mm 0.00 in0.0 mm 0.00 in0.0 mm
08:00 PM 43.9°F6.6°C 37.8°F3.2°C 79% Calm Calm -- 30.51 in1033.2 mb 0.00 in0.0 mm 0.00 in0.0 mm 0.00 in0.0 mm
08:05 PM 43.5°F6.4°C 37.4°F3.0°C 79% Calm Calm -- 30.51 in1033.2 mb 0.00 in0.0 mm 0.00 in0.0 mm 0.00 in0.0 mm
08:10 PM 43.2°F6.2°C 37.0°F2.8°C 79% Calm Calm -- 30.51 in1033.2 mb 0.00 in0.0 mm 0.00 in0.0 mm 0.00 in0.0 mm
08:15 PM 43.0°F6.1°C 36.9°F2.7°C 79% Calm Calm -- 30.51 in1033.2 mb 0.00 in0.0 mm 0.00 in0.0 mm 0.00 in0.0 mm
08:20 PM 43.0°F6.1°C 37.2°F2.9°C 80% Calm Calm -- 30.51 in1033.2 mb 0.00 in0.0 mm 0.00 in0.0 mm 0.00 in0.0 mm
08:25 PM 43.0°F6.1°C 37.2°F2.9°C 80% Calm Calm -- 30.51 in1033.2 mb 0.00 in0.0 mm 0.00 in0.0 mm 0.00 in0.0 mm
08:30 PM 43.0°F6.1°C 36.9°F2.7°C 79% Calm Calm -- 30.51 in1033.2 mb 0.00 in0.0 mm 0.00 in0.0 mm 0.00 in0.0 mm
08:35 PM 42.6°F5.9°C 36.9°F2.7°C 80% Calm Calm -- 30.51 in1033.2 mb 0.00 in0.0 mm 0.00 in0.0 mm 0.00 in0.0 mm
08:40 PM 42.3°F5.7°C 36.5°F2.5°C 80% Calm Calm -- 30.51 in1033.2 mb 0.00 in0.0 mm 0.00 in0.0 mm 0.00 in0.0 mm
08:45 PM 41.9°F5.5°C 36.1°F2.3°C 80% Calm Calm -- 30.51 in1033.2 mb 0.00 in0.0 mm 0.00 in0.0 mm 0.00 in0.0 mm
08:50 PM 41.5°F5.3°C 36.1°F2.3°C 81% Calm Calm -- 30.51 in1033.2 mb 0.00 in0.0 mm 0.00 in0.0 mm 0.00 in0.0 mm
08:55 PM 41.0°F5.0°C 36.0°F2.2°C 82% Calm Calm -- 30.51 in1033.2 mb 0.00 in0.0 mm 0.00 in0.0 mm 0.00 in0.0 mm
09:00 PM 40.6°F4.8°C 35.6°F2.0°C 82% Calm Calm -- 30.51 in1033.2 mb 0.00 in0.0 mm 0.00 in0.0 mm 0.00 in0.0 mm
09:05 PM 40.5°F4.7°C 35.8°F2.1°C 83% Calm Calm -- 30.51 in1033.2 mb 0.00 in0.0 mm 0.00 in0.0 mm 0.00 in0.0 mm
09:10 PM 40.3°F4.6°C 35.6°F2.0°C 83% Calm Calm -- 30.51 in1033.2 mb 0.00 in0.0 mm 0.00 in0.0 mm 0.00 in0.0 mm
09:15 PM 39.9°F4.4°C 35.2°F1.8°C 83% Calm Calm -- 30.51 in1033.2 mb 0.00 in0.0 mm 0.00 in0.0 mm 0.00 in0.0 mm
09:20 PM 39.7°F4.3°C 35.1°F1.7°C 83% Calm Calm -- 30.51 in1033.2 mb 0.00 in0.0 mm 0.00 in0.0 mm 0.00 in0.0 mm
09:25 PM 39.7°F4.3°C 35.1°F1.7°C 83% Calm Calm -- 30.51 in1033.2 mb 0.00 in0.0 mm 0.00 in0.0 mm 0.00 in0.0 mm
09:30 PM 39.6°F4.2°C 35.1°F1.7°C 84% Calm Calm -- 30.51 in1033.2 mb 0.00 in0.0 mm 0.00 in0.0 mm 0.00 in0.0 mm
09:35 PM 39.6°F4.2°C 35.4°F1.9°C 85% Calm Calm -- 30.51 in1033.2 mb 0.00 in0.0 mm 0.00 in0.0 mm 0.00 in0.0 mm
09:40 PM 39.7°F4.3°C 35.6°F2.0°C 85% Calm Calm -- 30.50 in1032.8 mb 0.00 in0.0 mm 0.00 in0.0 mm 0.00 in0.0 mm
09:45 PM 39.0°F3.9°C 34.3°F1.3°C 83% Calm Calm -- 30.50 in1032.8 mb 0.00 in0.0 mm 0.00 in0.0 mm 0.00 in0.0 mm
09:50 PM 38.8°F3.8°C 34.3°F1.3°C 84% Calm Calm -- 30.50 in1032.8 mb 0.00 in0.0 mm 0.00 in0.0 mm 0.00 in0.0 mm
09:55 PM 38.5°F3.6°C 34.0°F1.1°C 84% Calm Calm -- 30.51 in1033.2 mb 0.00 in0.0 mm 0.00 in0.0 mm 0.00 in0.0 mm
10:00 PM 37.9°F3.3°C 33.6°F0.9°C 84% Calm Calm -- 30.50 in1032.8 mb 0.00 in0.0 mm 0.00 in0.0 mm 0.00 in0.0 mm
10:05 PM 38.1°F3.4°C 34.3°F1.3°C 86% Calm Calm -- 30.51 in1033.2 mb 0.00 in0.0 mm 0.00 in0.0 mm 0.00 in0.0 mm
10:10 PM 38.1°F3.4°C 34.0°F1.1°C 85% Calm Calm -- 30.50 in1032.8 mb 0.00 in0.0 mm 0.00 in0.0 mm 0.00 in0.0 mm
10:15 PM 37.9°F3.3°C 34.2°F1.2°C 86% Calm Calm -- 30.50 in1032.8 mb 0.00 in0.0 mm 0.00 in0.0 mm 0.00 in0.0 mm
10:20 PM 37.8°F3.2°C 34.0°F1.1°C 86% Calm Calm -- 30.50 in1032.8 mb 0.00 in0.0 mm 0.00 in0.0 mm 0.00 in0.0 mm
10:25 PM 37.8°F3.2°C 34.0°F1.1°C 86% Calm Calm -- 30.50 in1032.8 mb 0.00 in0.0 mm 0.00 in0.0 mm 0.00 in0.0 mm
10:30 PM 37.8°F3.2°C 34.0°F1.1°C 86% Calm Calm -- 30.50 in1032.8 mb 0.00 in0.0 mm 0.00 in0.0 mm 0.00 in0.0 mm
10:35 PM 37.8°F3.2°C 34.2°F1.2°C 87% Calm Calm -- 30.50 in1032.8 mb 0.00 in0.0 mm 0.00 in0.0 mm 0.00 in0.0 mm
10:40 PM 37.8°F3.2°C 34.0°F1.1°C 86% Calm Calm -- 30.50 in1032.8 mb 0.00 in0.0 mm 0.00 in0.0 mm 0.00 in0.0 mm
10:45 PM 37.6°F3.1°C 33.8°F1.0°C 86% Calm Calm -- 30.50 in1032.8 mb 0.00 in0.0 mm 0.00 in0.0 mm 0.00 in0.0 mm
10:50 PM 37.6°F3.1°C 33.8°F1.0°C 86% Calm Calm -- 30.50 in1032.8 mb 0.00 in0.0 mm 0.00 in0.0 mm 0.00 in0.0 mm
10:55 PM 37.0°F2.8°C 33.3°F0.7°C 86% Calm Calm -- 30.50 in1032.8 mb 0.00 in0.0 mm 0.00 in0.0 mm 0.00 in0.0 mm
11:00 PM 36.9°F2.7°C 33.1°F0.6°C 86% Calm Calm -- 30.50 in1032.8 mb 0.00 in0.0 mm 0.00 in0.0 mm 0.00 in0.0 mm
11:05 PM 36.7°F2.6°C 32.9°F0.5°C 86% Calm Calm -- 30.49 in1032.5 mb 0.00 in0.0 mm 0.00 in0.0 mm 0.00 in0.0 mm
11:10 PM 36.7°F2.6°C 33.3°F0.7°C 87% Calm Calm -- 30.49 in1032.5 mb 0.00 in0.0 mm 0.00 in0.0 mm 0.00 in0.0 mm
11:15 PM 36.3°F2.4°C 32.5°F0.3°C 86% Calm Calm -- 30.49 in1032.5 mb 0.00 in0.0 mm 0.00 in0.0 mm 0.00 in0.0 mm
11:20 PM 36.1°F2.3°C 32.4°F0.2°C 86% Calm Calm -- 30.49 in1032.5 mb 0.00 in0.0 mm 0.00 in0.0 mm 0.00 in0.0 mm
11:25 PM 36.1°F2.3°C 32.7°F0.4°C 87% Calm Calm -- 30.49 in1032.5 mb 0.00 in0.0 mm 0.00 in0.0 mm 0.00 in0.0 mm
11:30 PM 36.0°F2.2°C 32.5°F0.3°C 87% Calm Calm -- 30.49 in1032.5 mb 0.00 in0.0 mm 0.00 in0.0 mm 0.00 in0.0 mm
11:35 PM 36.0°F2.2°C 32.5°F0.3°C 87% Calm Calm -- 30.49 in1032.5 mb 0.00 in0.0 mm 0.00 in0.0 mm 0.00 in0.0 mm
11:40 PM 35.8°F2.1°C 32.4°F0.2°C 87% Calm Calm -- 30.48 in1032.2 mb 0.00 in0.0 mm 0.00 in0.0 mm 0.00 in0.0 mm
11:45 PM 35.8°F2.1°C 32.4°F0.2°C 87% Calm Calm -- 30.48 in1032.2 mb 0.00 in0.0 mm 0.00 in0.0 mm 0.00 in0.0 mm
11:50 PM 35.8°F2.1°C 32.5°F0.3°C 88% Calm Calm -- 30.48 in1032.2 mb 0.00 in0.0 mm 0.00 in0.0 mm 0.00 in0.0 mm
11:55 PM 35.8°F2.1°C 32.5°F0.3°C 88% Calm Calm -- 30.48 in1032.2 mb 0.00 in0.0 mm 0.00 in0.0 mm 0.00 in0.0 mm